Preview of NWS' New Version of Forecast
This preview is not operational and should not be used for support decisions.

Regional Weather Roundup (RWR)

Issued by National Weather Service (NWS)

                            
000
ASUS46 KPQR 170210
RWROR 

OREGON REGIONAL WEATHER ROUNDUP
NATIONAL WEATHER SERVICE PORTLAND OR
600 PM PST SAT FEB 16 2019

NOTE: "FAIR" INDICATES FEW OR NO CLOUDS BELOW 12,000 FEET WITH
NO SIGNIFICANT WEATHER AND/OR OBSTRUCTIONS TO VISIBILITY.

ORZ001>013-170300-
NORTHWEST OREGON

  
CITY           SKY/WX    TMP DP  RH WIND       PRES   REMARKS
ASTORIA        LGT RAIN  37  36  96 CALM      29.92S                  
TILLAMOOK      LGT RAIN  37  34  87 CALM      29.96S                  
PORTLAND       MOCLDY    40  36  86 SE6       29.94R                  
VANCOUVER WA   MOCLDY    40  36  86 E5        29.93S                  
SCAPPOOSE      CLOUDY    42  37  82 CALM      29.92S                  
HILLSBORO      CLOUDY    41  34  76 SW7       29.92R                  
AURORA         MOCLDY    40  36  86 S5        29.95R                  
MCMINNVILLE    CLOUDY    39  35  86 W8        29.94R                  
SALEM          MOCLDY    39  34  82 S5        29.94S                  
CORVALLIS      MOCLDY    39  36  89 NW9       29.98R                  
EUGENE         MOCLDY    39  34  82 SW6       29.98S                  
$$

ORZ021-028-170300-
SOUTHWEST OREGON

  
CITY           SKY/WX    TMP DP  RH WIND       PRES   REMARKS
NORTH BEND     LGT RAIN  41  36  82 W9        30.03S                  
BROOKINGS      MOCLDY    43  37  79 VRB3      30.05F                  
ROSEBURG       LGT RAIN  39  34  82 CALM      30.01S                  
SEXTON SUMMIT  MOCLDY    26  25  96 VRB5      29.89F                  
GRANTS PASS    CLOUDY    39  32  75 CALM      30.02                   
MEDFORD        MOCLDY    39  33  79 S5        29.99S                  
$$

ORZ014>016-041-170300-
COLUMBIA GORGE

  
CITY           SKY/WX    TMP DP  RH WIND       PRES   REMARKS
TROUTDALE      MOCLDY    39  37  92 S3        29.94S                  
HOOD RIVER     CLOUDY    34  34 100 W3        29.88S                  
THE DALLES     CLOUDY    33  29  85 CALM      29.89S                  
$$

ORZ029>031-041-044-049-050-061>064-502-503-505>511-170300-
EASTERN OREGON

  
CITY           SKY/WX    TMP DP  RH WIND       PRES   REMARKS
MADRAS         NOT AVBL                                               
REDMOND        CLOUDY    35  22  58 NW16      29.80S WCI  25          
BEND           MOCLDY    34  21  60 NW6       29.81R                  
PRINEVILLE     CLOUDY    34  23  64 W12       29.81  WCI  25          
KLAMATH FALLS  MOCLDY    30  21  69 NW3       29.87F                  
LAKEVIEW       CLOUDY    25  19  78 CALM      29.83S                  
HERMISTON      PTCLDY    32  28  85 E3        29.87S                  
PENDLETON      PTCLDY    29  27  92 E5        29.82S                  
JOHN DAY       MOCLDY    30  28  93 CALM      29.78                   
MEACHAM        CLOUDY    29  25  85 CALM      29.74S                  
LA GRANDE      CLOUDY    30  27  88 CALM      29.79R                  
BAKER CITY     CLOUDY    30  28  92 SW3       29.77R                  
BURNS          CLOUDY    29  22  75 W5        29.77S                  
ROME             N/A     30  26  85 NE3       29.78R                  
ONTARIO        MOCLDY    39  32  76 NE3       29.81R                  
$$